Temp
82 81 80 79 78 77 77 77 77 77 77 77 77 77 77 78 77 77 77 77 77 77 76 76 77 77 77 77 77 76 76 76 76 76 75 75 75 74 74 74 74 74 74 74 74 74 74 74 74 74 75 75 76 76 77 77 77 76 74 74 73 73
81 81 81 80 80 78 77 77 77 77 77 77 77 77 77 77 78 77 78 77 77 78 77 77 77 77 77 77 76 76 76 76 76 75 75 75 75 74 74 74 74 74 74 74 74 73 73 74 75 75 75 76 74 77 77 77 76 76 75 74 73 74
82 82 81 81 81 78 78 78 78 78 78 77 77 77 77 78 78 78 78 78 78 77 79 78 78 78 77 77 76 76 76 76 76 76 75 75 75 74 74 74 74 74 74 74 74 75 75 76 75 75 75 73 74 77 78 78 76 75 74 73 72 74
83 82 81 80 80 78 78 79 78 78 77 76 76 77 77 78 78 78 78 78 78 78 78 77 79 78 78 77 76 76 76 76 76 76 75 75 75 75 74 74 74 74 73 74 74 75 76 79 77 76 77 76 76 77 77 76 76 75 74 75 74 74
83 82 82 80 79 78 79 79 79 78 78 77 76 77 78 78 79 79 80 78 80 79 79 78 77 76 77 76 76 75 75 75 75 75 75 75 74 75 74 74 74 73 74 74 76 77 79 79 77 77 75 75 75 76 77 76 75 75 73 72 72 73
76 81 82 80 79 80 79 78 78 78 78 77 77 78 78 78 79 79 79 79 79 78 78 77 76 76 77 77 76 76 76 76 76 75 77 76 77 75 75 77 75 74 75 77 77 79 79 78 77 76 76 75 76 76 76 75 75 73 72 71 72 74
71 77 81 81 82 81 80 79 79 79 78 77 78 78 79 80 79 79 79 77 77 77 78 77 76 76 77 77 76 77 77 77 77 77 78 78 78 77 77 78 77 76 78 79 81 81 81 80 80 80 78 77 76 76 76 75 75 74 72 72 73 74
72 71 72 80 81 81 81 81 80 79 79 78 79 79 79 80 80 79 79 78 78 79 78 78 77 77 77 78 77 78 78 78 78 79 79 79 79 78 78 78 79 80 82 82 83 82 80 80 78 78 77 76 76 75 75 75 74 74 72 71 72 73
71 72 72 79 80 81 82 82 80 80 80 80 79 80 80 80 80 80 80 79 79 78 79 77 77 77 78 77 77 78 78 78 79 79 79 77 80 78 77 78 78 80 80 80 79 79 80 80 77 78 77 77 77 75 74 75 74 74 73 72 71 72
71 72 73 76 79 80 81 80 81 80 80 79 80 80 80 80 80 81 80 81 81 79 79 79 77 77 77 76 76 76 76 78 77 78 78 77 79 78 78 78 80 81 83 81 79 79 78 79 78 77 78 76 75 77 75 74 75 74 74 72 71 71
71 73 73 72 78 78 79 80 81 82 81 80 81 80 80 80 80 80 81 80 82 81 80 80 79 78 78 78 77 76 77 78 77 78 78 78 80 80 80 79 80 79 79 80 79 79 78 77 77 78 78 77 76 76 75 75 75 75 75 72 71 71
71 73 73 74 77 78 78 81 81 82 81 81 80 79 82 81 80 80 82 80 80 80 81 79 79 81 79 78 79 78 78 78 78 78 79 79 79 80 80 82 82 81 79 79 79 79 78 77 78 78 78 78 77 76 75 75 75 75 74 73 72 72
72 72 72 74 77 79 78 81 81 81 81 82 80 80 81 80 80 80 79 80 80 81 80 80 79 79 80 79 78 78 78 78 79 79 78 81 82 79 79 79 79 80 79 79 78 78 81 78 78 77 79 78 77 78 77 77 76 75 75 74 73 72
72 72 73 74 77 77 79 78 80 80 80 80 81 80 80 80 80 80 80 80 81 81 81 80 80 79 79 78 78 78 78 78 79 79 79 79 79 80 78 79 79 78 79 78 77 77 78 77 77 77 77 79 78 76 76 76 75 75 74 74 73 73
73 73 74 74 74 76 77 76 76 77 81 79 80 81 80 80 80 80 80 80 80 80 81 81 81 79 79 78 78 78 78 79 79 79 78 78 78 78 78 78 78 76 77 76 78 78 79 77 77 78 77 77 77 77 76 76 76 76 76 74 74 73
73 73 72 69 71 73 74 73 74 75 74 78 81 81 79 81 82 81 80 79 80 80 80 80 80 79 78 78 78 79 78 79 79 79 78 78 79 78 78 79 78 78 76 77 79 77 77 77 78 78 76 77 76 76 76 76 75 76 76 76 75 73
72 71 69 69 70 68 69 68 68 70 74 72 72 76 81 80 81 81 80 80 80 79 79 79 79 79 79 78 78 78 79 78 79 78 78 78 78 79 78 81 77 78 77 76 79 79 77 77 77 77 77 76 75 75 75 76 75 75 77 75 75 76
71 70 68 68 69 67 68 69 68 69 71 73 74 74 79 81 80 81 81 80 80 79 79 79 79 79 79 79 79 78 78 78 79 78 77 77 77 79 78 78 76 79 79 78 78 77 76 77 78 77 76 75 74 74 75 75 75 75 75 76 75 76
70 69 68 69 69 68 68 69 70 70 71 71 72 74 76 79 79 80 80 80 80 79 79 80 79 79 78 78 79 78 77 77 78 77 77 76 76 78 78 78 77 77 78 79 77 78 76 77 78 77 76 75 75 75 75 75 75 75 75 75 77 78
69 69 68 67 66 67 67 68 68 70 70 70 71 71 72 77 79 79 82 81 81 78 81 79 80 79 78 78 78 78 77 78 77 77 76 75 75 75 77 76 77 77 76 76 77 77 77 76 76 76 75 75 75 74 75 74 74 74 74 75 75 76
67 68 66 65 65 66 66 66 68 69 70 70 69 69 70 72 78 79 82 82 80 79 80 79 80 79 77 78 78 79 77 78 78 77 75 75 76 76 77 76 76 76 75 74 74 76 78 77 73 72 73 74 73 74 74 75 74 74 74 74 75 74
67 67 67 66 66 66 67 67 68 67 69 70 69 68 68 68 74 81 80 80 80 80 80 79 78 78 77 77 77 78 77 77 76 76 77 77 77 77 77 76 76 74 76 74 73 77 76 78 72 71 68 69 70 72 73 74 74 74 74 74 74 74
67 67 66 66 66 65 67 68 67 67 67 69 70 69 69 70 70 75 79 79 79 79 79 79 79 79 78 78 77 78 78 77 77 77 75 75 76 75 76 76 75 74 72 74 74 76 74 76 72 72 73 70 66 66 69 71 73 73 74 74 74 74
67 67 66 66 67 67 68 68 69 69 69 68 68 69 70 70 70 71 76 79 79 79 79 79 80 80 79 78 77 77 77 77 77 77 76 75 75 76 75 75 75 75 74 71 74 73 75 75 74 73 67 68 67 68 64 65 68 71 75 74 74 75
66 66 66 67 68 67 68 67 68 68 68 68 68 67 67 66 69 71 77 77 78 80 80 80 80 80 80 78 77 77 77 77 77 77 77 76 76 76 78 78 76 75 74 72 72 73 74 75 74 74 71 69 67 65 66 69 69 68 73 73 75 76
67 67 66 67 68 67 67 66 66 65 65 65 64 64 64 65 67 73 77 78 79 80 80 80 80 81 81 80 78 78 78 78 77 76 77 77 77 77 77 78 78 76 75 75 73 74 73 74 75 75 76 72 71 67 67 70 70 63 71 73 73 76
66 66 67 67 67 67 66 67 67 66 65 65 64 66 68 68 69 76 77 76 77 78 80 79 79 80 80 80 79 79 78 78 78 77 78 76 76 77 79 81 80 77 76 76 75 71 71 74 74 75 76 75 74 73 75 70 65 68 63 67 72 72
66 66 67 67 67 68 67 67 67 67 66 64 64 65 67 66 68 75 77 76 77 77 79 80 78 80 81 80 79 79 79 78 78 79 79 78 77 77 78 79 78 78 77 76 75 72 72 73 71 71 75 73 73 75 76 74 72 69 67 65 66 72
65 66 67 68 67 68 68 66 66 66 65 66 66 67 68 67 67 71 75 76 77 78 79 79 80 79 80 81 79 78 79 79 78 79 79 79 78 79 78 77 76 75 75 74 74 74 72 72 72 70 70 71 73 72 74 74 74 72 68 65 66 67
65 65 66 67 68 67 67 66 65 65 65 65 67 68 69 68 68 73 75 75 76 75 77 76 77 79 80 81 80 80 79 80 78 79 79 80 79 77 77 77 76 75 75 74 74 73 70 71 71 71 70 70 69 70 71 71 71 71 71 71 66 67
65 66 66 66 67 66 66 66 66 65 66 66 67 69 69 69 72 73 73 74 74 74 75 75 75 76 78 80 80 80 79 80 79 78 79 80 78 78 77 77 77 76 75 74 73 71 71 71 70 69 69 69 68 70 70 70 70 70 70 68 68 69
66 65 65 67 66 66 66 66 66 66 67 69 70 70 70 70 71 72 72 71 71 72 73 74 74 74 75 77 77 77 79 79 79 78 78 78 78 79 78 78 77 76 75 75 74 72 71 70 70 69 69 69 70 71 72 72 73 72 70 70 70 69
66 67 65 67 65 66 66 65 66 66 66 65 65 69 70 71 71 71 72 71 71 71 72 71 72 72 74 75 76 75 77 77 77 77 78 79 78 80 79 77 77 76 75 74 74 73 71 70 70 69 69 70 71 72 73 74 74 73 73 73 71 67
65 67 67 67 66 67 66 65 66 66 65 66 66 66 67 70 71 70 70 70 72 73 73 72 73 73 74 76 76 76 76 77 78 78 78 78 78 79 79 79 78 76 75 75 75 74 73 72 71 71 71 70 71 73 73 74 74 74 72 72 69 69
66 67 67 67 68 67 68 68 68 68 66 66 66 64 66 67 67 68 69 69 68 68 69 72 74 75 76 75 76 76 75 73 73 75 77 77 79 79 78 78 78 77 76 76 75 74 73 73 72 71 71 71 72 73 74 74 74 74 74 73 72 71
67 67 67 68 67 67 67 68 67 65 66 66 66 66 66 66 67 68 68 68 68 68 68 69 71 74 76 76 74 70 70 69 70 68 69 69 71 72 76 76 76 77 76 78 76 75 74 73 72 72 72 72 72 73 75 75 75 74 74 74 74 74
69 69 68 68 68 68 68 68 67 66 67 67 66 65 66 66 67 67 67 67 67 68 69 71 72 73 71 71 71 70 69 68 69 69 69 69 69 71 72 74 76 76 76 76 76 75 74 73 73 73 73 73 73 74 75 76 76 75 75 75 75 74
MSLP
1013.99 1014.07 1014.23 1014.47 1014.79 1015.07 1015.35 1015.55 1015.75 1015.95 1016.07 1016.23 1016.39 1016.55 1016.59 1016.67 1016.79 1016.95 1017.07 1017.27 1017.39 1017.47 1017.67 1017.83 1017.95 1018.03 1018.15 1018.31 1018.39 1018.55 1018.63 1018.71 1018.79 1018.91 1019.11 1019.23 1019.39 1019.43 1019.47 1019.51 1019.51 1019.47 1019.47 1019.51 1019.63 1019.75 1019.83 1019.83 1019.79 1019.71 1019.63 1019.59 1019.47 1019.39 1019.63 1019.87 1020.15 1020.55 1020.95 1021.27 1021.51 1021.67
1014.15 1014.23 1014.23 1014.47 1014.79 1015.11 1015.43 1015.63 1015.87 1016.07 1016.19 1016.27 1016.47 1016.63 1016.71 1016.71 1016.83 1016.99 1017.11 1017.27 1017.35 1017.35 1017.55 1017.75 1017.87 1017.99 1018.15 1018.31 1018.47 1018.55 1018.63 1018.71 1018.87 1019.07 1019.19 1019.35 1019.43 1019.47 1019.51 1019.51 1019.55 1019.59 1019.59 1019.59 1019.63 1019.71 1019.83 1019.91 1019.87 1019.83 1019.75 1019.63 1019.63 1019.47 1019.63 1019.95 1020.23 1020.63 1021.11 1021.47 1021.71 1021.79
1014.07 1014.03 1014.23 1014.39 1014.71 1015.19 1015.47 1015.63 1015.83 1016.03 1016.23 1016.35 1016.47 1016.67 1016.75 1016.75 1016.83 1016.95 1017.11 1017.23 1017.27 1017.35 1017.43 1017.59 1017.75 1017.91 1018.07 1018.31 1018.47 1018.55 1018.63 1018.75 1018.95 1019.11 1019.27 1019.39 1019.47 1019.55 1019.51 1019.55 1019.63 1019.67 1019.71 1019.71 1019.71 1019.71 1019.75 1019.71 1019.75 1019.75 1019.79 1019.71 1019.59 1019.47 1019.63 1019.95 1020.39 1020.79 1021.31 1021.63 1021.95 1021.99
1014.03 1014.03 1014.11 1014.27 1014.59 1015.11 1015.39 1015.51 1015.79 1015.95 1016.19 1016.39 1016.47 1016.63 1016.71 1016.71 1016.79 1016.87 1017.07 1017.11 1017.19 1017.31 1017.43 1017.55 1017.75 1017.99 1018.15 1018.35 1018.51 1018.55 1018.67 1018.83 1018.99 1019.15 1019.31 1019.43 1019.55 1019.55 1019.59 1019.59 1019.63 1019.71 1019.83 1019.83 1019.83 1019.83 1019.63 1019.55 1019.63 1019.59 1019.51 1019.55 1019.67 1019.67 1019.79 1020.15 1020.55 1020.95 1021.39 1021.71 1021.99 1022.19
1014.19 1014.27 1014.19 1014.23 1014.59 1014.91 1015.11 1015.35 1015.59 1015.83 1016.07 1016.27 1016.47 1016.47 1016.55 1016.59 1016.63 1016.79 1016.91 1016.99 1017.07 1017.23 1017.39 1017.55 1017.87 1018.11 1018.27 1018.39 1018.55 1018.67 1018.75 1018.87 1018.99 1019.23 1019.27 1019.39 1019.43 1019.55 1019.59 1019.67 1019.79 1019.83 1019.83 1019.79 1019.67 1019.71 1019.43 1019.47 1019.59 1019.75 1019.83 1019.75 1019.75 1019.79 1020.07 1020.39 1020.63 1021.07 1021.51 1021.91 1022.15 1022.27
1014.67 1014.63 1014.43 1014.43 1014.63 1014.75 1014.87 1015.23 1015.47 1015.67 1015.91 1016.11 1016.23 1016.23 1016.35 1016.39 1016.47 1016.59 1016.75 1016.91 1017.03 1017.31 1017.51 1017.75 1018.07 1018.19 1018.23 1018.35 1018.59 1018.71 1018.71 1018.71 1018.87 1019.11 1018.99 1019.15 1019.15 1019.35 1019.39 1019.39 1019.59 1019.75 1019.63 1019.47 1019.43 1019.35 1019.31 1019.47 1019.71 1019.79 1019.99 1020.03 1020.03 1020.07 1020.27 1020.59 1020.87 1021.27 1021.59 1021.95 1022.19 1022.31
1015.35 1015.23 1015.03 1014.91 1014.71 1014.83 1015.07 1015.11 1015.19 1015.39 1015.71 1015.99 1015.91 1016.03 1016.19 1016.11 1016.23 1016.47 1016.67 1016.91 1017.15 1017.43 1017.59 1017.87 1018.03 1018.11 1018.27 1018.27 1018.51 1018.59 1018.51 1018.51 1018.71 1018.87 1018.71 1018.75 1018.91 1019.03 1019.07 1018.99 1019.19 1019.31 1019.15 1019.15 1019.15 1019.15 1019.23 1019.35 1019.55 1019.83 1020.03 1020.19 1020.23 1020.27 1020.43 1020.75 1020.99 1021.35 1021.67 1021.95 1022.23 1022.39
1014.47 1015.47 1015.59 1015.07 1014.83 1014.87 1014.87 1014.95 1015.11 1015.31 1015.43 1015.63 1015.67 1015.83 1015.91 1015.87 1016.03 1016.35 1016.63 1016.87 1017.03 1017.23 1017.47 1017.79 1017.95 1018.11 1018.19 1018.15 1018.35 1018.31 1018.27 1018.43 1018.51 1018.59 1018.43 1018.39 1018.67 1018.79 1018.79 1018.75 1018.79 1018.91 1018.83 1018.75 1018.91 1019.07 1019.35 1019.51 1019.63 1019.83 1020.15 1020.31 1020.39 1020.43 1020.59 1020.83 1021.03 1021.39 1021.71 1021.99 1022.23 1022.43
1013.87 1014.03 1014.43 1014.31 1014.59 1014.59 1014.51 1014.63 1014.87 1015.11 1015.27 1015.35 1015.47 1015.59 1015.63 1015.67 1015.95 1016.19 1016.39 1016.79 1016.95 1017.15 1017.31 1017.71 1017.91 1017.99 1017.99 1018.19 1018.19 1018.15 1018.19 1018.39 1018.35 1018.35 1018.39 1018.43 1018.43 1018.71 1018.71 1018.75 1018.83 1018.71 1018.67 1018.87 1018.91 1019.15 1019.31 1019.59 1019.71 1019.87 1020.15 1020.39 1020.51 1020.67 1020.79 1020.91 1021.19 1021.35 1021.67 1021.95 1022.23 1022.47
1014.55 1014.35 1014.43 1014.31 1014.27 1014.35 1014.31 1014.51 1014.67 1014.87 1014.87 1015.11 1015.23 1015.31 1015.43 1015.63 1015.79 1015.99 1016.31 1016.43 1016.63 1016.83 1017.15 1017.51 1017.79 1017.79 1017.99 1018.19 1018.15 1018.15 1018.23 1018.35 1018.35 1018.23 1018.35 1018.63 1018.35 1018.47 1018.67 1018.55 1018.51 1018.55 1018.67 1018.83 1019.07 1019.19 1019.31 1019.71 1019.83 1019.87 1020.07 1020.39 1020.51 1020.71 1020.83 1020.95 1021.15 1021.43 1021.59 1021.95 1022.27 1022.47
1014.67 1014.43 1014.75 1015.03 1014.55 1014.39 1014.23 1014.39 1014.47 1014.63 1014.71 1014.99 1014.95 1015.03 1015.31 1015.51 1015.79 1015.87 1016.07 1016.27 1016.47 1016.63 1016.87 1017.23 1017.55 1017.75 1017.87 1017.99 1018.11 1018.19 1018.27 1018.23 1018.35 1018.35 1018.27 1018.31 1018.07 1018.19 1018.19 1018.35 1018.43 1018.59 1018.71 1018.83 1019.07 1019.03 1019.27 1019.75 1019.95 1019.95 1020.15 1020.39 1020.51 1020.63 1020.83 1020.87 1021.03 1021.19 1021.55 1021.91 1022.15 1022.39
1014.47 1014.31 1014.59 1015.03 1014.75 1014.51 1014.39 1014.35 1014.39 1014.51 1014.67 1014.87 1014.83 1015.03 1015.23 1015.47 1015.83 1015.83 1015.95 1016.19 1016.31 1016.51 1016.67 1016.95 1017.23 1017.51 1017.67 1017.75 1017.83 1018.07 1017.99 1018.15 1018.27 1018.19 1018.15 1018.19 1018.15 1018.11 1018.19 1018.23 1018.27 1018.39 1018.55 1018.79 1018.99 1019.11 1019.27 1019.59 1019.95 1020.03 1020.15 1020.31 1020.43 1020.67 1020.79 1020.87 1021.03 1021.15 1021.43 1021.79 1022.03 1022.15
1013.87 1014.11 1014.39 1014.75 1014.75 1014.43 1014.27 1014.31 1014.47 1014.51 1014.55 1014.75 1014.83 1014.95 1015.19 1015.43 1015.67 1015.79 1016.03 1016.15 1016.27 1016.43 1016.55 1016.91 1017.03 1017.23 1017.43 1017.47 1017.59 1017.71 1017.83 1017.91 1017.95 1018.11 1018.11 1018.11 1018.11 1018.11 1018.19 1018.35 1018.47 1018.47 1018.71 1018.87 1019.11 1019.31 1019.23 1019.39 1019.79 1019.99 1020.03 1020.27 1020.35 1020.59 1020.71 1020.79 1020.95 1021.15 1021.39 1021.59 1021.79 1022.03
1013.75 1013.83 1014.11 1014.35 1014.39 1014.35 1014.19 1014.31 1014.31 1014.43 1014.43 1014.67 1014.87 1015.03 1015.15 1015.31 1015.47 1015.71 1015.99 1016.23 1016.31 1016.47 1016.63 1016.75 1016.95 1017.19 1017.23 1017.43 1017.59 1017.71 1017.75 1017.83 1017.75 1017.87 1017.99 1017.99 1018.19 1018.23 1018.43 1018.55 1018.71 1018.83 1019.03 1019.15 1019.39 1019.47 1019.55 1019.75 1019.79 1019.87 1020.03 1020.07 1020.23 1020.55 1020.67 1020.83 1020.87 1021.03 1021.23 1021.47 1021.59 1021.75
1013.91 1013.99 1014.03 1014.43 1014.43 1014.31 1014.19 1014.31 1014.43 1014.63 1014.51 1014.75 1014.95 1015.03 1015.11 1015.19 1015.39 1015.63 1015.99 1016.31 1016.47 1016.63 1016.71 1016.83 1016.87 1017.11 1017.31 1017.43 1017.63 1017.67 1017.71 1017.71 1017.67 1017.79 1018.03 1018.11 1018.27 1018.35 1018.47 1018.67 1018.75 1019.15 1019.15 1019.23 1019.35 1019.47 1019.63 1019.79 1019.91 1020.03 1020.11 1020.11 1020.31 1020.39 1020.51 1020.71 1020.79 1020.95 1021.15 1021.27 1021.43 1021.55
1013.71 1014.11 1014.43 1014.99 1014.91 1015.11 1014.95 1014.83 1014.87 1014.91 1014.79 1014.91 1014.99 1015.19 1015.23 1015.23 1015.35 1015.55 1015.99 1016.39 1016.55 1016.71 1016.83 1016.95 1016.99 1017.07 1017.39 1017.51 1017.63 1017.67 1017.59 1017.51 1017.63 1017.79 1018.03 1018.11 1018.23 1018.47 1018.51 1018.55 1018.55 1018.83 1019.35 1019.55 1019.43 1019.63 1019.59 1019.83 1019.87 1020.03 1020.07 1020.11 1020.23 1020.35 1020.59 1020.67 1020.79 1020.87 1020.91 1021.11 1021.35 1021.43
1013.59 1013.91 1014.43 1015.23 1015.47 1015.71 1015.59 1015.67 1015.39 1015.39 1015.19 1015.11 1015.31 1015.51 1015.19 1015.27 1015.35 1015.63 1016.03 1016.39 1016.55 1016.75 1016.83 1017.03 1017.07 1017.11 1017.31 1017.55 1017.67 1017.67 1017.59 1017.55 1017.63 1017.91 1018.07 1018.15 1018.27 1018.23 1018.43 1018.59 1018.59 1018.63 1018.87 1019.43 1019.47 1019.75 1019.83 1019.79 1019.91 1020.03 1020.11 1020.19 1020.31 1020.39 1020.47 1020.55 1020.67 1020.71 1020.75 1020.99 1021.11 1021.27
1013.55 1013.51 1013.83 1014.47 1015.39 1015.91 1015.91 1015.63 1015.35 1015.03 1015.43 1015.51 1015.35 1015.59 1015.39 1015.27 1015.47 1015.71 1015.95 1016.35 1016.51 1016.75 1016.83 1016.99 1017.07 1017.15 1017.23 1017.31 1017.43 1017.55 1017.59 1017.59 1017.71 1017.87 1018.07 1018.23 1018.31 1018.03 1018.15 1018.35 1018.79 1018.63 1018.71 1019.07 1019.31 1019.47 1019.71 1019.75 1019.75 1020.07 1020.19 1020.27 1020.39 1020.43 1020.43 1020.43 1020.47 1020.63 1020.71 1020.95 1020.99 1021.07
1014.11 1014.15 1014.15 1014.59 1015.15 1015.71 1016.35 1016.39 1015.99 1015.39 1015.51 1015.95 1015.59 1015.63 1015.67 1015.43 1015.51 1015.59 1015.87 1016.15 1016.43 1016.71 1016.83 1016.95 1017.11 1017.19 1017.27 1017.27 1017.31 1017.39 1017.59 1017.67 1017.71 1017.91 1018.11 1018.31 1018.31 1018.19 1018.19 1018.27 1018.71 1018.91 1018.71 1018.79 1019.03 1019.11 1019.31 1019.47 1019.79 1019.99 1020.23 1020.35 1020.43 1020.55 1020.43 1020.43 1020.47 1020.55 1020.63 1020.71 1020.75 1020.79
1014.31 1014.35 1014.63 1014.91 1015.27 1015.91 1016.47 1016.95 1017.03 1016.51 1016.31 1016.39 1016.03 1015.99 1015.87 1015.79 1015.35 1015.51 1015.63 1015.91 1016.31 1016.63 1016.67 1016.91 1017.03 1017.11 1017.27 1017.27 1017.27 1017.31 1017.55 1017.59 1017.75 1017.87 1018.19 1018.43 1018.43 1018.35 1018.39 1018.51 1018.71 1018.91 1019.15 1019.11 1018.91 1019.03 1019.03 1019.47 1019.79 1020.07 1020.27 1020.35 1020.39 1020.55 1020.59 1020.55 1020.59 1020.63 1020.59 1020.59 1020.67 1020.63
1014.67 1014.55 1014.79 1015.07 1015.19 1015.39 1016.03 1016.75 1017.03 1017.23 1016.99 1016.59 1016.51 1016.39 1016.23 1016.07 1015.63 1015.39 1015.47 1015.75 1016.11 1016.43 1016.63 1016.83 1016.95 1017.11 1017.31 1017.31 1017.27 1017.23 1017.47 1017.59 1017.63 1017.83 1018.07 1018.27 1018.19 1018.15 1018.07 1018.27 1018.55 1018.71 1019.19 1019.55 1019.59 1019.15 1019.15 1019.27 1020.11 1020.63 1020.39 1020.59 1020.67 1020.47 1020.59 1020.59 1020.71 1020.67 1020.63 1020.55 1020.51 1020.67
1014.95 1014.87 1014.99 1015.15 1015.27 1015.35 1015.67 1016.27 1016.91 1017.35 1017.19 1016.83 1016.67 1016.95 1016.87 1016.51 1016.47 1015.47 1015.47 1015.63 1015.99 1016.23 1016.39 1016.67 1016.83 1016.99 1017.19 1017.27 1017.35 1017.31 1017.43 1017.59 1017.63 1017.75 1017.87 1017.95 1018.03 1018.03 1018.07 1018.23 1018.47 1018.99 1018.87 1019.39 1019.79 1019.39 1019.31 1019.47 1020.51 1021.07 1021.63 1021.63 1021.23 1020.87 1020.63 1020.67 1020.75 1020.67 1020.55 1020.47 1020.47 1020.59
1015.15 1015.23 1015.51 1015.75 1015.71 1015.83 1016.03 1016.15 1016.59 1016.99 1017.11 1016.99 1016.75 1016.87 1016.91 1016.79 1017.39 1016.47 1015.47 1015.63 1015.87 1016.11 1016.27 1016.55 1016.67 1016.83 1017.07 1017.15 1017.19 1017.19 1017.31 1017.35 1017.55 1017.59 1017.87 1018.03 1018.07 1018.19 1018.15 1018.27 1018.47 1018.99 1019.35 1019.15 1019.39 1019.19 1019.35 1019.43 1020.63 1020.35 1020.47 1021.31 1022.19 1022.47 1021.63 1021.19 1020.71 1020.55 1020.43 1020.39 1020.35 1020.51
1015.15 1015.31 1015.35 1015.47 1015.83 1015.63 1015.35 1015.55 1015.75 1016.03 1016.03 1016.15 1016.83 1017.07 1017.07 1017.35 1017.83 1017.43 1016.31 1015.67 1015.87 1015.99 1016.15 1016.39 1016.43 1016.59 1016.79 1016.91 1017.03 1017.15 1017.07 1017.19 1017.39 1017.35 1017.59 1017.95 1018.07 1018.19 1018.15 1018.27 1018.43 1018.71 1018.95 1019.75 1019.63 1019.63 1019.19 1019.31 1019.75 1020.47 1021.83 1021.79 1021.63 1021.75 1022.71 1022.39 1021.67 1020.79 1020.31 1020.39 1020.39 1020.39
1014.07 1014.75 1015.27 1015.31 1015.19 1015.47 1015.51 1015.67 1015.95 1016.11 1016.35 1016.51 1016.55 1017.15 1017.55 1018.11 1018.43 1017.59 1016.15 1015.91 1015.95 1015.75 1015.91 1016.11 1016.19 1016.35 1016.55 1016.79 1016.87 1016.95 1017.03 1017.03 1017.15 1017.23 1017.31 1017.63 1017.87 1017.91 1017.95 1017.99 1018.15 1018.59 1018.91 1019.35 1019.71 1019.47 1019.27 1019.15 1019.47 1019.51 1020.71 1021.47 1021.75 1022.19 1022.15 1021.35 1021.23 1021.27 1020.39 1020.59 1020.27 1020.15
1013.99 1014.47 1014.87 1014.91 1015.19 1015.71 1015.83 1015.79 1016.07 1016.55 1017.07 1017.27 1017.55 1017.51 1017.83 1018.19 1018.47 1017.19 1016.19 1015.71 1015.67 1015.63 1015.67 1015.83 1015.95 1016.07 1016.19 1016.43 1016.75 1016.79 1016.87 1016.95 1017.07 1017.15 1017.23 1017.39 1017.47 1017.59 1017.75 1017.83 1017.91 1018.27 1018.67 1018.71 1019.19 1019.51 1019.59 1018.99 1019.07 1019.35 1019.47 1019.95 1020.55 1021.75 1021.79 1021.07 1021.15 1022.43 1020.51 1020.11 1020.15 1019.95
1014.23 1014.03 1014.67 1014.91 1014.75 1015.35 1016.11 1016.11 1015.99 1015.99 1016.15 1016.75 1017.31 1017.59 1017.59 1017.83 1018.03 1016.43 1015.75 1015.75 1015.63 1015.51 1015.43 1015.63 1015.71 1015.79 1015.87 1016.07 1016.35 1016.55 1016.67 1016.79 1016.87 1017.03 1017.11 1017.31 1017.51 1017.51 1017.47 1017.47 1017.47 1017.91 1018.27 1018.43 1018.75 1019.59 1019.63 1019.47 1019.15 1019.15 1019.23 1019.43 1019.55 1019.67 1019.83 1020.75 1021.71 1021.11 1022.31 1020.99 1020.23 1020.07
1014.43 1014.39 1014.67 1015.19 1015.31 1015.23 1015.83 1016.19 1016.39 1016.39 1016.43 1016.79 1017.07 1017.31 1017.11 1017.47 1017.51 1016.19 1015.67 1015.71 1015.51 1015.55 1015.43 1015.39 1015.55 1015.63 1015.67 1015.79 1016.11 1016.39 1016.47 1016.67 1016.79 1016.83 1016.99 1017.23 1017.35 1017.27 1017.23 1017.15 1017.23 1017.43 1017.75 1018.03 1018.35 1018.87 1019.07 1018.91 1019.39 1019.51 1018.95 1019.23 1019.31 1019.27 1019.31 1019.51 1019.75 1020.59 1020.99 1021.71 1021.31 1020.03
1014.35 1014.95 1014.95 1015.27 1015.55 1015.59 1015.75 1015.95 1015.91 1016.15 1016.51 1016.43 1016.59 1016.83 1016.75 1016.67 1017.31 1016.67 1015.79 1015.63 1015.51 1015.55 1015.47 1015.43 1015.43 1015.51 1015.51 1015.55 1015.79 1016.11 1016.27 1016.51 1016.67 1016.67 1016.67 1016.87 1016.99 1017.03 1017.15 1017.19 1017.27 1017.47 1017.83 1017.91 1017.91 1017.99 1018.31 1018.55 1018.55 1018.79 1018.75 1018.87 1018.79 1019.07 1019.03 1019.11 1019.27 1019.51 1020.43 1021.15 1020.99 1020.71
1014.55 1015.07 1015.15 1015.07 1015.23 1015.67 1015.71 1015.51 1015.75 1015.83 1016.11 1016.31 1016.63 1016.63 1016.55 1016.55 1016.83 1016.15 1015.51 1015.51 1015.47 1015.51 1015.43 1015.43 1015.39 1015.35 1015.39 1015.39 1015.55 1015.75 1016.03 1016.27 1016.43 1016.47 1016.43 1016.51 1016.71 1016.91 1016.95 1016.99 1016.99 1017.23 1017.43 1017.71 1017.63 1017.79 1018.11 1018.31 1018.47 1018.59 1018.83 1019.03 1019.35 1019.07 1019.03 1019.19 1019.23 1019.43 1019.55 1019.75 1020.71 1020.43
1014.31 1015.03 1015.15 1015.19 1015.23 1015.47 1015.83 1015.47 1015.47 1015.87 1016.15 1016.27 1016.23 1016.15 1016.23 1016.39 1015.83 1015.47 1015.47 1015.39 1015.39 1015.47 1015.43 1015.59 1015.51 1015.47 1015.39 1015.31 1015.35 1015.47 1015.79 1015.99 1016.11 1016.27 1016.35 1016.31 1016.43 1016.59 1016.71 1016.79 1016.83 1016.99 1017.23 1017.43 1017.59 1017.71 1017.83 1017.95 1018.23 1018.47 1018.71 1019.11 1019.51 1019.51 1019.39 1019.47 1019.31 1019.19 1019.51 1019.87 1020.03 1019.99
1014.47 1014.75 1014.83 1015.07 1015.23 1015.43 1015.79 1015.75 1015.71 1015.91 1016.23 1015.95 1015.83 1015.79 1015.91 1016.07 1015.71 1015.71 1015.67 1015.99 1016.07 1015.87 1015.95 1015.91 1015.91 1015.95 1015.83 1015.55 1015.43 1015.43 1015.39 1015.55 1015.79 1015.99 1016.23 1016.19 1016.11 1016.03 1016.19 1016.43 1016.63 1016.83 1017.07 1017.07 1017.19 1017.43 1017.63 1017.87 1018.03 1018.27 1018.39 1018.39 1018.63 1018.75 1018.83 1018.83 1018.47 1018.55 1018.95 1019.27 1019.47 1019.67
1014.79 1014.71 1014.87 1015.11 1015.35 1015.39 1015.87 1015.99 1016.27 1016.39 1016.39 1016.35 1016.39 1015.87 1015.63 1015.63 1015.55 1015.59 1015.55 1015.91 1016.11 1016.27 1016.23 1016.43 1016.43 1016.47 1016.31 1016.15 1015.99 1015.95 1015.79 1015.71 1015.63 1015.59 1015.75 1015.99 1016.07 1015.83 1015.91 1016.19 1016.47 1016.67 1016.87 1017.07 1017.07 1017.19 1017.47 1017.47 1017.59 1017.95 1018.15 1018.07 1018.11 1018.15 1018.23 1017.99 1017.91 1018.07 1018.15 1018.31 1018.71 1019.35
1015.43 1015.03 1014.99 1015.15 1015.27 1015.23 1015.47 1015.87 1016.39 1016.47 1016.35 1016.03 1015.91 1016.27 1016.11 1015.67 1015.47 1015.43 1015.55 1015.87 1015.87 1015.91 1016.07 1016.23 1016.31 1016.47 1016.31 1016.23 1016.19 1016.15 1016.11 1016.03 1015.91 1015.83 1015.87 1015.91 1015.99 1015.91 1015.83 1016.03 1016.23 1016.51 1016.71 1016.71 1016.71 1016.91 1017.07 1017.15 1017.27 1017.35 1017.55 1017.99 1018.03 1017.91 1017.71 1017.55 1017.63 1017.67 1017.91 1018.23 1018.63 1018.83
1015.55 1015.35 1015.19 1015.27 1015.35 1015.47 1015.55 1015.75 1015.95 1015.91 1016.31 1016.07 1016.43 1016.59 1016.47 1015.87 1015.75 1015.83 1015.83 1016.03 1016.19 1016.27 1016.35 1016.23 1016.07 1016.03 1016.07 1016.23 1016.19 1016.15 1016.23 1016.43 1016.67 1016.55 1016.35 1016.31 1016.07 1015.99 1015.95 1015.95 1016.03 1016.11 1016.23 1016.35 1016.55 1016.67 1016.83 1016.95 1017.15 1017.23 1017.39 1017.55 1017.59 1017.55 1017.43 1017.27 1017.23 1017.35 1017.27 1017.55 1017.91 1018.15
1015.35 1015.35 1015.27 1015.35 1015.43 1015.43 1015.51 1015.47 1015.71 1016.11 1016.03 1016.03 1016.35 1016.47 1016.19 1015.91 1015.79 1015.75 1015.91 1016.19 1016.39 1016.43 1016.51 1016.59 1016.43 1016.23 1016.03 1016.07 1016.31 1016.43 1016.39 1016.39 1016.35 1016.55 1016.71 1017.19 1017.43 1017.35 1016.47 1016.15 1016.07 1015.99 1016.11 1015.87 1016.19 1016.39 1016.51 1016.63 1016.75 1016.79 1016.95 1017.07 1017.27 1017.23 1016.99 1016.95 1016.87 1016.87 1016.91 1016.95 1017.11 1017.39
1015.23 1015.23 1015.27 1015.27 1015.31 1015.35 1015.39 1015.59 1015.83 1015.99 1015.83 1015.59 1015.83 1015.91 1015.87 1015.87 1015.87 1015.91 1016.07 1016.27 1016.31 1016.31 1016.35 1016.27 1016.23 1016.07 1016.19 1016.31 1016.39 1016.39 1016.43 1016.51 1016.35 1016.11 1015.99 1016.03 1016.35 1016.91 1017.03 1016.63 1016.23 1016.03 1015.99 1015.83 1015.99 1016.23 1016.35 1016.55 1016.43 1016.47 1016.55 1016.63 1016.75 1016.71 1016.59 1016.43 1016.43 1016.47 1016.47 1016.47 1016.59 1016.79
Wind_Speed
13 15 13 12 11 12 14 18 16 18 18 16 15 15 15 16 14 13 14 14 14 10 9 8 10 9 13 9 11 12 12 12 12 12 13 13 14 14 14 13 11 10 9 9 7 7 5 2 2 4 5 8 9 2 5 6 7 7 7 6 6 4
13 14 14 10 10 9 11 13 12 11 11 11 12 13 11 10 12 9 13 11 7 7 7 8 7 10 7 9 10 13 12 13 12 12 12 13 14 14 14 12 11 10 9 9 10 4 4 4 4 4 5 6 5 3 7 6 6 8 9 6 5 8
14 14 15 12 10 9 12 10 12 11 9 11 10 10 8 10 9 10 11 8 6 5 7 7 6 8 7 11 10 12 13 13 13 13 12 13 13 14 13 12 12 11 10 11 6 4 3 4 4 9 8 6 3 2 6 9 8 8 9 8 4 9
13 14 12 9 10 9 9 9 8 8 7 7 7 8 8 8 8 10 10 7 6 7 6 5 11 13 12 8 9 12 13 13 13 13 13 9 11 12 13 12 11 10 7 5 3 2 2 5 3 1 3 3 4 5 6 8 7 7 7 9 7 11
10 11 11 9 11 10 10 8 8 8 8 7 7 7 7 7 7 9 9 6 8 6 6 6 7 7 6 7 7 6 7 7 7 8 11 5 6 7 7 7 6 6 5 5 5 5 3 4 4 5 3 4 4 4 9 7 7 8 8 6 6 10
2 7 6 9 9 10 10 9 9 9 8 7 8 7 7 7 7 7 7 6 7 6 7 7 7 7 7 7 7 6 6 6 7 7 7 6 5 6 6 7 7 7 6 6 4 3 5 3 4 4 4 3 3 3 6 7 7 8 7 6 5 11
5 3 7 6 8 8 7 8 8 9 9 9 7 7 7 7 7 8 7 6 5 6 7 8 8 8 8 7 7 7 6 6 7 6 6 6 6 6 6 6 7 7 5 6 5 4 3 4 5 5 5 4 3 3 6 6 7 8 6 6 6 9
10 4 6 8 7 9 7 8 8 9 9 9 8 7 7 6 7 8 8 7 6 7 7 8 7 6 7 6 7 7 6 6 6 6 6 4 5 5 4 3 3 6 6 4 5 5 6 3 6 5 4 5 3 3 5 6 6 8 7 6 6 8
11 11 8 9 9 9 8 8 9 9 8 10 7 7 7 5 6 7 8 10 7 8 8 7 7 6 6 6 6 5 5 5 6 5 4 2 3 4 3 4 5 3 4 3 3 4 5 5 3 4 4 4 5 4 4 5 6 6 7 6 6 7
6 6 7 5 9 8 8 9 9 8 6 9 6 6 7 5 6 5 7 7 7 6 7 8 7 5 6 5 4 2 2 5 4 3 4 4 4 5 5 5 4 3 4 4 4 4 5 6 2 3 5 4 4 5 3 3 6 7 7 7 6 6
8 8 5 6 4 5 5 7 8 8 5 8 6 6 6 6 6 4 6 7 7 5 7 8 8 7 6 6 5 6 5 5 5 4 4 2 3 3 3 2 2 3 3 3 4 3 5 6 4 3 5 5 3 5 4 3 4 5 7 7 7 6
12 10 8 9 6 6 5 7 7 8 6 7 5 4 6 6 6 4 5 5 5 5 4 6 7 8 7 7 7 8 5 6 5 4 4 3 2 3 3 3 3 2 3 3 3 4 3 5 4 5 4 4 4 4 4 4 4 5 6 7 6 6
15 12 12 11 8 4 5 6 6 6 7 7 6 4 5 6 4 5 4 4 4 4 4 5 4 6 6 4 4 4 5 5 5 5 4 5 5 3 3 2 3 3 2 3 3 3 4 3 4 4 3 5 4 5 4 3 5 5 5 6 6 7
11 13 13 10 10 6 7 6 6 5 7 5 6 4 4 6 4 5 5 3 3 3 2 5 3 5 4 4 4 4 3 4 4 5 4 2 3 2 3 3 2 2 2 2 3 2 1 3 5 4 3 4 4 5 4 4 3 5 5 5 6 6
4 7 10 10 9 7 4 6 3 1 8 4 5 5 4 5 5 6 6 3 3 3 2 3 2 5 3 4 4 3 5 4 4 4 5 3 3 3 3 3 4 3 2 1 3 3 2 2 2 3 4 4 4 4 4 5 4 5 5 4 5 4
6 6 2 7 4 6 5 5 4 2 4 1 6 5 3 5 4 6 6 5 5 4 2 4 3 3 3 4 3 2 3 4 4 3 4 3 4 4 4 3 4 3 3 3 3 3 2 2 4 3 4 3 3 5 5 4 4 4 4 6 5 4
9 6 5 4 4 8 7 6 4 6 5 1 2 3 5 4 4 7 5 5 5 5 3 5 3 3 2 5 4 3 3 5 4 3 3 3 2 5 4 3 3 5 3 2 1 4 3 3 2 4 4 3 3 3 2 6 5 4 5 4 5 6
7 8 9 9 4 5 1 3 2 1 4 4 2 1 3 5 4 6 6 6 6 6 3 5 4 3 2 3 5 4 3 6 4 3 3 3 4 2 3 4 3 1 4 3 3 3 3 5 3 4 3 3 3 3 3 3 4 4 5 5 5 5
5 4 7 6 7 7 1 6 4 0 1 6 3 1 6 4 4 7 6 7 7 7 4 6 5 4 3 3 4 5 5 5 3 3 3 3 3 2 3 3 3 1 1 1 2 1 4 3 2 3 3 3 3 2 1 2 3 3 5 4 5 5
5 5 4 7 8 8 6 2 4 3 1 3 3 3 4 6 4 5 6 8 7 7 6 6 5 5 3 3 2 4 7 6 4 3 3 4 3 3 2 4 3 3 2 2 4 4 3 3 3 2 2 4 3 3 2 3 3 3 3 3 3 5
5 5 6 6 8 9 10 7 4 4 2 3 1 3 4 7 4 5 7 9 8 7 6 7 6 6 4 4 3 1 7 6 4 5 4 4 3 3 2 3 3 2 2 2 2 3 2 4 3 3 2 2 3 4 3 2 3 3 3 3 3 3
6 4 2 3 5 6 6 5 3 1 3 1 2 2 3 5 9 5 5 9 7 7 7 7 7 7 6 5 4 3 7 6 5 5 4 5 3 3 2 4 3 3 2 2 3 3 5 0 2 2 3 2 2 3 4 4 3 4 3 3 4 4
4 2 3 2 3 6 3 5 4 4 3 2 3 1 1 3 8 9 4 8 7 6 6 6 7 7 6 6 5 3 5 6 5 4 5 5 5 4 3 3 5 3 3 3 2 3 4 2 2 3 2 1 2 3 2 2 3 5 5 4 3 4
1 3 6 6 5 6 9 7 7 7 7 7 2 3 1 4 10 8 6 7 6 6 8 7 7 7 6 5 5 4 3 5 6 5 5 5 5 5 4 3 4 4 3 3 4 3 4 2 3 2 2 3 2 3 2 5 6 5 5 5 5 5
5 5 5 5 6 6 5 5 5 4 3 3 3 1 1 4 7 11 6 6 7 6 9 8 8 8 7 7 6 5 5 4 5 6 4 5 5 5 5 4 4 4 4 3 2 3 4 5 4 4 2 2 1 2 3 0 3 1 5 5 7 7
6 6 6 8 5 3 4 4 6 6 6 4 4 6 6 7 10 10 8 7 9 8 8 8 8 8 9 8 7 7 5 5 5 5 6 4 4 5 5 5 6 4 4 3 2 1 2 4 5 4 5 4 2 2 2 0 1 2 4 5 5 7
5 5 2 4 6 6 6 5 7 8 8 6 5 1 2 7 11 9 6 8 8 8 9 8 7 8 7 8 8 6 5 5 4 4 5 4 4 4 5 6 5 6 5 5 4 3 3 1 3 3 3 4 4 4 4 3 2 2 2 4 5 6
3 3 3 3 2 5 5 4 3 4 5 8 8 9 11 10 11 7 6 7 6 7 8 7 6 8 7 7 9 7 7 6 5 5 6 6 6 5 4 4 4 4 5 5 5 6 5 3 5 5 5 5 5 5 6 5 4 3 3 1 4 5
6 1 4 3 4 4 4 5 5 6 5 7 11 11 7 7 7 8 6 7 6 7 7 7 7 7 8 8 8 9 8 7 6 6 6 6 7 7 7 5 6 6 6 6 6 5 5 5 6 6 5 6 6 6 5 5 5 4 4 3 5 5
7 2 1 3 3 4 3 7 7 8 11 9 5 6 7 8 10 10 6 7 6 7 7 7 8 8 7 8 7 7 7 8 8 7 6 6 7 7 6 5 5 6 6 7 5 5 7 6 4 2 2 1 3 5 5 4 5 6 5 6 6 3
6 2 2 2 3 4 2 6 7 7 6 5 7 7 6 7 8 6 6 7 6 6 4 4 4 5 6 6 7 8 7 7 6 6 7 7 6 8 7 5 4 7 7 8 6 7 6 5 4 4 4 3 4 5 4 5 5 4 4 3 4 6
5 3 3 3 3 3 3 7 5 4 6 5 5 5 5 6 3 2 1 1 3 2 0 1 2 2 4 5 4 4 8 8 8 6 7 6 5 6 7 6 5 6 7 8 7 7 6 7 7 6 6 6 6 5 5 6 4 5 5 5 5 5
3 1 2 1 4 3 5 3 4 6 1 5 6 6 3 2 2 2 2 4 3 1 0 2 2 3 3 4 3 3 4 6 6 7 7 7 6 5 7 7 7 7 7 8 7 7 7 9 8 7 7 6 6 6 7 6 5 4 3 4 5 5
2 3 3 3 2 3 4 5 6 3 3 6 5 4 5 1 1 2 3 3 1 2 3 4 2 1 2 2 3 4 4 5 4 3 3 4 5 5 4 6 7 7 7 7 7 8 8 8 8 7 5 5 6 7 6 6 6 5 6 4 5 5
4 4 5 5 3 1 3 4 3 2 6 4 1 1 6 2 3 3 3 2 1 2 2 1 1 2 3 2 3 2 3 6 9 9 6 3 4 5 5 5 5 6 7 7 8 7 7 8 9 8 7 7 6 6 6 6 7 6 6 6 5 4
4 4 5 4 4 5 2 2 3 1 5 8 5 5 4 1 0 1 3 3 3 2 1 3 4 4 2 1 1 2 1 2 4 3 4 8 12 11 7 5 5 5 6 5 7 8 7 8 9 9 9 8 7 8 7 7 6 6 6 6 5 5
4 3 4 3 4 4 3 3 3 4 4 3 4 4 3 3 2 1 2 3 4 3 3 3 2 1 5 3 2 1 2 4 5 6 7 8 9 9 11 7 6 6 6 4 5 6 6 7 8 8 8 9 9 8 8 7 7 7 6 5 6 5
Wind_Direction
155 151 150 145 142 145 150 147 146 146 146 145 146 147 146 143 142 145 146 148 148 151 145 149 148 144 142 145 141 135 137 134 129 128 128 128 126 127 127 129 134 136 137 134 124 124 116 103 325 334 322 318 320 8 81 78 81 97 92 87 91 107
154 155 149 144 148 145 150 151 147 147 148 148 149 150 151 151 150 152 154 151 161 153 150 156 156 146 151 143 143 141 139 137 134 135 137 135 136 136 137 140 144 148 152 154 152 146 158 172 213 243 275 263 291 115 113 123 106 102 96 92 88 94
155 156 150 149 146 145 153 155 153 154 152 152 155 159 164 158 158 161 161 166 166 164 161 158 145 155 146 148 143 142 140 141 142 143 144 143 143 141 143 146 155 162 168 171 178 145 170 166 186 212 227 257 226 107 101 85 75 78 85 90 87 102
160 154 156 150 142 151 157 157 153 153 153 157 163 172 173 170 167 167 166 182 167 168 160 150 149 151 143 140 142 142 145 145 147 148 150 146 147 147 147 155 161 175 181 187 233 28 242 145 149 201 43 58 60 47 79 98 97 95 96 96 100 106
165 156 161 143 146 156 161 159 159 154 159 166 171 181 173 189 171 171 173 177 168 166 155 137 137 150 147 147 149 148 150 154 154 156 163 155 164 155 160 165 174 180 205 206 224 216 190 105 93 82 74 42 42 46 69 74 86 88 92 93 106 111
232 174 158 148 155 158 164 160 161 155 167 169 179 181 174 192 170 166 167 174 163 164 145 138 152 161 155 155 156 159 167 165 166 165 185 166 174 161 189 169 177 192 210 209 219 193 114 124 113 116 99 88 55 47 91 94 89 99 98 108 112 112
42 286 151 163 155 156 172 163 160 163 167 171 185 175 182 186 163 164 161 170 163 157 154 155 164 165 158 161 161 168 174 170 163 170 195 176 163 170 205 174 177 195 205 204 185 127 113 88 115 124 121 106 89 88 90 99 105 106 110 104 112 111
126 124 297 192 163 170 178 166 163 168 171 175 181 175 185 181 156 168 158 176 172 166 164 159 161 166 163 165 166 179 162 169 170 172 200 175 160 170 194 191 170 193 191 135 116 101 95 88 81 91 110 115 114 74 84 103 90 103 114 119 119 114
156 170 196 191 179 174 182 170 165 173 176 173 181 178 175 178 156 170 157 169 183 166 163 150 161 169 164 165 170 182 159 172 173 173 177 202 169 169 187 193 196 185 119 129 99 106 114 109 124 122 118 115 110 98 86 108 117 114 116 126 118 122
190 176 213 217 176 181 181 175 168 177 178 169 181 177 169 166 153 175 158 169 181 168 157 156 158 168 161 163 154 152 206 165 179 165 170 188 187 169 184 189 164 157 142 115 117 124 122 123 94 95 104 115 126 125 123 116 128 132 131 111 120 134
203 181 242 294 218 191 182 168 170 176 174 174 178 165 166 151 164 190 156 170 174 178 162 155 161 169 168 164 170 166 199 158 159 179 186 181 194 155 163 159 143 114 122 107 117 126 108 108 132 136 112 138 127 115 129 126 124 124 117 125 134 146
194 187 191 221 239 206 182 173 181 171 169 181 167 168 166 151 175 167 157 187 158 173 161 150 160 163 168 167 170 170 175 159 170 158 172 175 156 168 156 163 123 109 86 120 135 111 135 135 139 131 165 128 130 126 132 144 128 123 125 134 152 136
184 185 186 202 225 225 180 177 179 192 160 178 167 170 168 153 173 152 157 195 148 170 161 152 164 152 158 160 156 155 159 160 157 150 177 187 169 166 151 104 129 114 128 120 107 137 154 138 126 104 147 131 140 134 144 146 145 127 134 139 142 138
183 180 184 198 202 209 177 185 180 192 154 162 168 172 165 161 168 146 149 182 142 173 140 145 154 137 165 145 152 166 155 144 155 147 157 163 123 136 125 148 104 90 113 142 139 123 111 124 123 137 140 133 136 137 152 133 144 131 127 147 140 162
198 193 189 194 205 197 167 171 141 344 158 159 178 168 176 156 164 139 146 157 160 157 137 150 153 141 170 135 159 176 152 155 151 137 145 154 151 175 158 149 145 146 180 103 144 152 160 147 114 151 138 144 145 124 127 148 143 144 154 143 151 159
190 200 140 356 351 346 7 29 19 326 76 328 163 181 176 160 172 134 147 159 171 158 154 170 159 159 154 135 172 162 164 133 127 129 153 157 167 179 165 177 134 135 144 180 189 121 136 157 164 142 127 152 136 146 154 147 148 150 151 145 167 171
184 162 122 182 296 42 32 23 12 347 356 63 45 308 170 170 162 143 151 160 168 160 172 165 158 189 176 150 182 154 198 122 131 153 147 163 225 190 149 188 147 158 148 118 197 152 188 140 153 124 152 155 141 146 176 148 157 155 157 168 164 158
184 165 168 155 163 83 338 213 241 138 345 314 269 31 274 163 162 148 157 160 165 157 177 158 157 185 237 173 180 159 180 133 156 164 143 167 235 201 158 148 133 189 145 205 206 163 166 159 175 146 157 141 136 162 190 145 140 181 156 180 169 174
209 190 162 130 124 140 17 319 306 280 71 310 314 358 309 199 185 153 161 153 159 156 180 157 166 173 214 245 177 166 143 147 163 154 147 170 241 248 158 131 137 159 348 228 245 197 163 126 106 135 160 140 132 190 163 148 172 182 178 183 178 172
207 180 135 107 113 126 152 268 303 315 61 276 307 318 318 280 182 150 161 151 156 159 169 163 168 166 195 231 271 149 141 152 176 158 160 182 214 239 171 146 164 152 167 312 330 314 122 123 150 151 164 140 156 159 228 185 176 198 196 168 198 172
241 172 173 150 149 148 158 174 191 239 227 199 317 339 299 303 250 157 173 149 157 162 170 165 168 162 185 210 239 159 144 157 178 169 169 200 214 218 190 152 148 159 161 169 282 301 284 143 165 166 137 160 157 161 197 221 190 201 213 188 189 187
233 220 189 146 142 137 136 117 140 75 302 298 143 200 301 313 293 192 172 144 152 170 164 167 169 165 180 195 217 207 150 162 186 175 174 183 217 242 200 159 157 162 189 188 198 256 284 195 170 196 148 193 194 171 190 195 216 213 214 207 186 194
341 220 85 76 74 84 83 119 121 156 229 337 329 6 15 272 275 276 162 143 148 170 160 168 176 168 178 189 203 210 163 163 178 188 175 178 202 210 230 177 165 172 171 195 209 209 261 228 248 196 205 158 183 185 195 228 223 226 202 213 200 198
202 224 146 149 144 171 169 159 160 166 181 174 171 9 1 294 275 255 211 147 158 181 165 171 182 169 179 185 193 202 192 167 178 194 180 184 184 202 200 203 168 181 186 184 184 219 218 223 210 312 230 187 194 176 203 220 219 215 212 199 210 209
161 112 148 183 173 170 171 154 124 141 81 107 108 254 328 273 233 238 194 169 166 193 168 175 179 177 181 179 194 199 199 192 179 185 195 188 185 198 199 200 185 179 192 198 210 190 196 201 199 217 259 302 270 216 237 47 161 232 189 204 207 213
132 135 175 167 169 162 230 136 141 146 143 138 154 184 204 210 233 218 186 174 174 187 178 181 178 186 179 174 191 195 200 197 187 185 191 201 192 191 208 196 189 178 190 199 224 304 252 188 184 198 233 229 245 275 335 153 189 239 197 208 206 208
149 123 166 220 164 151 198 196 181 168 156 132 108 57 328 261 228 221 184 180 177 183 184 187 181 189 190 172 180 193 201 204 195 181 183 202 217 209 202 213 189 172 184 182 182 225 255 169 161 205 218 244 265 261 245 238 226 179 206 242 230 208
68 98 114 302 197 160 175 185 103 62 120 121 149 199 197 221 262 242 181 186 175 183 188 187 187 184 204 173 172 189 197 200 212 190 184 197 211 212 224 207 178 159 166 175 183 198 214 178 181 194 199 221 221 243 254 263 265 247 248 231 222 241
94 83 142 160 169 187 152 137 121 130 162 183 178 198 204 174 242 250 197 181 192 181 188 188 194 196 199 191 178 185 191 194 205 208 195 199 199 208 215 201 181 174 167 175 188 193 199 202 184 187 166 212 205 215 220 221 242 252 232 221 242 205
100 143 189 101 103 146 191 159 172 178 190 191 190 181 191 193 201 226 194 181 194 179 192 187 191 207 202 197 191 187 189 198 197 208 210 205 197 202 214 212 178 165 173 183 187 181 196 214 218 191 185 243 231 221 207 222 215 215 228 224 244 250
83 61 132 117 118 135 206 204 190 212 198 191 194 189 201 203 209 200 191 193 189 180 180 188 190 206 211 213 196 187 194 201 207 202 212 217 200 193 196 204 181 167 181 187 185 187 202 215 216 206 189 195 247 250 228 205 204 189 211 230 224 236
104 125 41 58 86 125 153 219 239 226 226 212 197 191 191 194 204 217 358 30 357 24 102 207 227 243 246 236 227 206 191 197 199 200 204 219 229 186 181 185 191 178 185 192 189 187 196 206 209 210 206 199 212 233 246 243 221 194 191 221 228 249
65 74 141 223 151 143 132 263 249 243 116 20 310 276 201 184 191 183 166 178 174 131 204 309 360 334 324 322 310 282 241 211 210 197 197 204 233 221 176 184 195 194 186 193 198 194 198 212 206 204 213 218 224 223 232 241 241 228 206 209 209 233
80 45 97 179 211 171 170 198 216 198 145 216 248 2 307 342 177 53 28 358 295 200 180 185 196 242 296 280 279 288 297 293 271 264 220 211 216 234 217 191 186 191 196 200 202 203 208 212 215 215 205 220 226 232 237 233 240 231 225 224 233 222
91 77 78 81 112 163 219 206 234 160 153 236 291 137 276 330 4 6 2 345 327 334 348 349 287 189 213 237 246 288 354 0 344 332 320 287 246 233 231 226 206 201 198 195 199 202 209 207 214 215 209 215 232 239 239 233 228 227 217 212 212 219
75 78 73 98 110 112 107 92 98 109 159 211 183 198 222 246 302 347 316 327 317 321 335 333 309 310 272 278 48 67 228 177 200 236 301 333 326 315 284 243 231 218 217 203 199 198 206 209 220 216 217 217 227 238 238 241 237 231 232 221 206 208
77 94 115 113 112 142 138 116 83 129 190 215 182 186 214 198 178 229 299 296 286 291 307 265 258 46 58 30 324 285 236 247 237 211 194 190 206 237 268 266 248 233 224 221 216 210 206 218 224 222 220 217 222 228 233 228 230 227 227 221 213 202